RH
43 67 100 99 97 98 91 83 74 56 29 22 28 35 95 73 91 96 82 84 66 81 70 43 34 34 32 29 31 35 61 68 70 67 60 67 68 65 48 63 64 54 76 74
38 74 86 98 90 96 90 87 86 75 42 34 43 39 76 97 100 100 90 77 58 61 57 48 68 47 34 30 30 51 49 54 59 48 46 64 57 62 62 72 51 38 49 43
40 69 100 99 52 91 86 94 97 96 61 67 47 85 88 87 78 93 95 84 88 82 80 56 31 24 24 24 17 15 36 40 48 61 53 44 47 51 76 49 55 46 34 36
62 91 100 24 67 84 92 86 93 83 69 60 74 93 57 68 94 86 81 76 80 82 40 13 8 10 14 19 23 25 30 33 41 50 44 46 55 65 77 53 32 36 33 24
100 100 85 55 57 71 97 85 94 90 80 64 97 95 70 66 54 90 95 93 36 17 10 10 11 12 11 16 23 16 18 23 35 38 36 40 51 53 18 18 30 31 29 17
100 100 97 52 77 94 100 84 98 99 99 94 92 73 91 90 56 84 87 74 51 22 16 12 11 11 24 24 24 21 25 30 31 30 36 36 22 16 14 20 27 29 18 16
99 100 89 82 84 95 98 59 100 99 97 94 94 91 98 100 96 88 81 61 44 51 47 11 9 11 21 22 13 12 15 22 15 16 15 14 14 15 20 27 32 24 16 17
83 100 99 93 95 96 98 100 98 99 87 97 79 91 99 76 68 65 42 48 84 87 42 15 11 12 14 14 10 12 16 12 13 14 15 16 18 22 28 30 21 16 17 19
63 96 95 100 100 87 83 89 88 89 96 88 96 96 100 72 93 80 39 62 56 47 53 43 23 17 15 16 13 9 10 11 12 12 14 17 20 24 22 16 16 18 19 23
88 98 100 100 97 100 100 100 96 97 98 86 95 87 84 86 77 52 45 34 30 56 47 35 35 27 20 23 21 12 11 11 11 12 14 15 15 16 17 18 19 21 24 33
81 100 100 99 91 83 86 91 97 92 96 100 87 89 94 69 81 83 74 59 92 51 41 34 28 25 21 25 36 31 21 18 18 18 17 18 19 19 20 21 24 28 36 57
85 100 97 83 66 100 97 90 94 100 98 96 80 89 95 91 100 97 95 99 96 82 68 76 78 83 59 38 36 41 42 40 35 32 32 33 38 48 60 66 69 83 97 100
88 94 92 50 40 67 98 99 100 100 95 100 100 100 95 100 99 96 95 96 94 93 88 97 100 98 88 71 59 67 87 92 98 98 93 89 88 90 98 98 100 100 100 100
75 60 53 33 38 43 56 86 90 99 98 99 100 90 100 98 95 93 98 100 100 97 83 92 99 100 96 98 100 90 100 100 100 98 96 94 96 99 100 100 100 100 100 100
82 42 25 28 38 56 73 82 80 84 83 87 96 98 99 100 100 100 100 100 100 100 100 100 100 100 98 99 100 99 100 100 100 100 100 100 100 100 100 100 100 100 100 100
87 70 68 75 90 84 81 82 86 80 80 85 97 95 93 96 97 98 98 100 100 96 98 99 100 100 100 100 100 100 100 96 98 91 74 65 87 100 100 100 100 100 100 100
63 64 75 92 89 95 92 85 90 96 100 100 89 95 99 92 84 90 74 85 99 100 100 100 97 99 100 98 97 99 99 99 99 94 52 44 72 99 100 100 100 100 100 100
67 44 56 98 98 100 99 100 100 95 89 98 100 91 84 99 86 91 100 89 84 85 84 70 42 51 45 40 46 95 100 100 99 73 85 100 100 100 100 100 100 100 100 100
97 90 99 100 100 97 82 97 100 99 99 100 88 48 27 34 71 80 72 59 29 18 28 98 100 100 72 98 100 89 86 98 100 100 100 100 100 100 100 100 100 100 100 100
93 98 100 100 87 62 51 38 40 43 42 37 32 32 29 24 22 22 23 22 23 40 30 54 94 90 76 100 100 100 100 100 100 100 100 100 100 100 100 100 100 100 100 100
100 93 59 49 100 100 92 76 66 77 100 99 98 96 96 100 96 100 100 100 100 100 100 100 100 100 100 100 100 100 100 100 100 100 100 100 100 100 100 100 100 100 100 98
83 100 100 100 99 90 78 73 76 81 100 100 100 100 100 100 100 100 100 100 100 100 100 100 100 100 100 100 100 100 100 100 100 100 100 100 100 100 100 98 90 66 32 15
87 100 100 100 100 100 100 100 99 100 100 100 100 100 100 100 100 100 100 100 100 100 100 100 100 100 100 100 100 100 100 100 100 100 100 98 90 74 54 33 17 10 8 9
98 100 100 100 100 100 100 100 100 100 100 100 100 100 100 100 100 100 100 100 100 100 100 100 100 100 100 100 100 100 99 91 74 55 40 31 18 11 7 7 8 9 10 10
100 100 100 100 100 100 100 100 100 100 99 99 99 99 99 100 100 99 99 99 99 98 98 94 88 80 68 56 44 33 26 20 14 10 8 8 9 9 10 11 11 11 11 11
61 46 34 25 24 22 18 19 21 19 14 10 11 9 7 8 8 8 8 8 9 9 9 10 10 10 10 9 9 8 8 8 9 9 10 11 12 12 12 12 12 11 13 16
11 11 10 10 10 9 8 8 8 8 8 8 8 8 8 8 8 8 8 9 9 9 9 9 9 9 9 9 10 10 11 12 13 13 13 13 14 14 14 14 17 20 17 11
Wind_Speed
44 39 42 45 46 44 46 44 42 37 31 32 37 31 26 29 29 29 30 30 16 13 23 22 20 22 25 27 27 29 29 28 25 24 29 29 27 29 32 34 31 31 30 33
48 42 40 46 48 49 46 45 45 44 40 30 26 30 37 32 30 33 35 37 30 26 27 23 30 35 33 32 31 29 29 29 27 26 28 28 29 30 33 34 33 33 35 36
49 46 40 46 47 52 49 49 44 44 41 31 33 37 35 33 37 33 33 36 33 26 23 34 35 26 23 27 31 31 31 33 33 33 32 32 34 35 35 36 35 35 37 39
51 50 50 46 47 45 52 50 47 40 36 34 34 34 36 37 33 35 37 38 34 35 29 22 20 18 18 22 28 31 32 33 36 36 37 36 36 37 37 38 38 38 39 40
45 52 51 53 46 41 48 46 47 41 41 39 33 33 38 37 39 36 37 36 33 28 26 22 22 23 25 25 26 29 32 34 35 36 38 39 39 41 41 40 40 41 42 43
25 35 47 46 49 43 37 48 46 45 42 43 39 45 40 41 34 37 40 42 40 30 29 27 26 26 26 27 28 28 29 29 30 32 36 38 41 41 42 42 43 46 46 47
41 22 41 47 49 52 49 43 45 48 51 49 42 44 39 40 41 44 50 41 39 32 33 32 33 33 33 32 32 31 31 31 32 34 37 39 41 42 42 44 47 48 49 51
60 37 32 53 50 45 47 52 45 46 51 54 52 50 41 40 42 44 50 44 40 40 38 37 37 37 39 36 34 35 36 36 36 36 39 40 42 43 45 47 49 51 53 55
63 22 19 37 48 41 39 41 47 44 46 45 48 48 46 45 43 45 43 43 43 40 41 41 41 41 41 38 37 38 39 40 39 40 41 43 44 46 48 50 53 54 56 60
52 41 17 12 37 33 25 30 34 37 38 39 47 51 46 43 42 43 46 46 43 41 42 44 44 44 42 41 41 41 41 42 42 43 44 45 48 50 53 56 58 59 61 63
53 42 30 20 18 30 47 44 38 36 38 40 45 48 52 48 43 42 45 43 39 42 42 42 44 46 45 45 45 44 44 43 44 46 48 49 52 55 59 62 63 65 66 69
43 38 35 28 23 21 35 41 37 41 36 39 41 44 50 49 47 48 46 42 42 42 42 40 41 43 44 45 47 48 49 49 50 51 52 55 57 60 63 66 68 70 70 68
45 38 34 33 30 32 27 32 37 44 46 45 45 45 49 49 51 55 52 48 46 47 45 41 42 45 47 47 47 46 48 48 48 52 57 61 64 67 69 67 66 67 67 71
40 46 41 39 37 33 30 35 36 37 44 49 46 44 55 62 56 51 47 48 50 49 48 49 48 48 50 47 51 53 53 51 49 51 56 58 60 65 67 68 70 74 77 78
32 41 40 36 32 30 31 34 37 41 44 46 42 48 47 59 63 56 54 56 56 55 54 46 51 55 53 51 48 51 49 57 55 56 53 56 61 65 68 72 75 77 78 79
27 27 26 26 27 29 31 35 36 39 43 44 43 39 48 45 46 48 47 49 51 54 52 49 46 54 44 47 47 50 56 59 57 56 61 65 68 71 74 77 79 79 78 79
32 33 29 27 26 27 28 31 33 37 40 37 38 39 38 40 42 43 45 47 53 44 49 49 50 52 53 55 54 56 57 64 73 71 69 71 71 76 78 76 75 74 75 76
30 35 34 30 27 29 31 32 35 38 40 38 35 37 40 43 46 48 44 45 46 47 50 52 52 52 55 58 63 63 65 70 69 72 69 71 76 75 72 72 72 72 73 75
28 33 36 32 34 31 31 31 34 34 37 42 45 47 47 48 49 50 51 51 52 52 52 52 52 56 64 62 65 66 69 73 73 72 74 72 70 70 69 70 72 74 76 78
34 37 38 39 36 35 39 43 45 45 44 44 44 45 46 45 46 47 49 51 51 53 54 59 62 68 69 71 73 72 73 73 71 68 67 68 69 71 73 74 76 78 82 85
31 35 39 38 33 37 41 40 37 35 36 38 38 39 40 41 43 45 46 48 50 53 56 59 63 64 63 63 63 63 64 65 66 67 69 70 71 73 76 79 82 86 90 93
33 32 33 33 32 32 33 35 38 39 41 44 42 41 41 42 42 43 45 47 50 52 53 55 55 56 58 60 62 63 65 67 69 71 73 75 78 81 85 88 91 92 92 93
29 34 44 43 36 33 34 36 36 36 35 35 36 37 38 40 42 44 46 48 50 52 54 56 59 61 63 65 67 69 70 72 75 78 81 83 86 88 90 91 92 92 92 91
33 29 27 24 24 26 29 32 33 35 38 39 41 42 43 45 46 48 50 52 54 57 59 62 64 66 68 71 73 75 78 80 81 83 85 88 88 88 89 89 87 86 84 82
21 22 23 25 27 29 32 34 36 38 40 42 44 45 47 50 52 54 56 58 60 63 65 68 71 73 75 77 78 80 81 83 84 84 84 83 82 81 78 76 75 76 77 79
24 25 27 29 31 34 38 40 43 45 46 48 50 51 53 56 58 61 63 65 67 68 70 72 74 75 77 78 80 80 80 79 78 76 74 71 69 69 70 71 73 74 74 76
35 37 39 42 44 45 47 49 50 51 54 56 58 60 62 63 65 67 69 70 71 73 74 75 75 74 73 72 71 69 67 65 63 62 62 63 65 66 68 68 68 70 72 73
Wind_Direction
233 226 228 231 235 227 227 235 241 245 245 250 260 253 255 253 239 253 264 271 269 266 262 264 267 269 267 267 273 274 275 277 283 285 289 289 291 290 295 292 293 288 285 286
229 233 225 230 232 230 229 235 240 243 240 241 244 246 245 242 246 259 264 273 271 260 249 241 270 272 272 276 277 277 280 281 281 280 280 283 288 291 286 280 288 290 289 288
237 237 229 232 232 231 235 234 237 243 243 241 238 251 241 247 253 256 262 264 264 266 253 261 257 256 266 279 283 284 285 284 285 283 282 283 283 280 279 286 287 285 282 283
236 236 234 233 233 235 239 241 238 243 235 240 233 241 250 241 246 250 251 256 261 268 271 253 263 266 271 275 280 285 287 284 280 278 281 281 277 278 276 278 278 279 282 283
223 236 240 242 239 240 238 239 241 237 240 239 237 246 256 259 252 254 265 255 257 250 255 258 264 270 273 274 276 279 281 280 281 279 279 279 278 277 280 284 284 285 287 287
220 235 241 242 241 237 244 238 233 236 239 233 236 244 249 255 261 261 264 265 265 264 260 266 272 269 272 276 278 280 280 279 277 277 276 275 277 280 279 280 282 285 286 287
244 277 236 244 239 241 240 242 236 238 242 245 244 250 246 257 259 271 270 263 264 263 266 266 271 275 281 280 279 278 278 276 273 272 273 274 276 277 279 280 283 283 283 285
246 259 238 245 245 241 239 241 238 235 239 242 244 245 248 251 259 261 261 256 259 260 262 264 268 272 275 278 280 279 276 273 272 273 275 275 276 277 277 278 279 280 283 285
239 250 191 228 238 250 235 239 240 239 241 241 246 247 244 241 245 255 258 256 258 260 264 265 267 268 271 275 275 273 273 273 273 273 273 274 274 275 276 276 277 280 283 285
237 236 279 266 232 221 232 233 243 250 250 242 242 247 245 244 248 257 260 259 260 258 263 266 270 272 273 274 273 272 273 275 275 276 275 275 275 276 276 278 280 282 284 287
234 244 261 275 281 263 245 245 251 259 248 243 245 243 248 251 254 256 261 263 264 262 267 271 273 273 272 272 272 272 273 274 276 276 277 276 276 277 279 280 282 283 285 286
239 245 248 248 255 260 245 247 252 246 244 237 244 260 254 245 248 251 255 255 261 269 274 280 280 281 276 273 273 272 273 275 275 275 276 277 278 280 282 282 283 285 286 291
235 249 253 256 263 275 261 250 246 245 247 250 249 250 250 245 248 251 259 263 267 274 277 280 280 278 279 277 275 274 275 276 278 280 280 280 280 282 286 287 286 288 294 294
245 246 248 255 258 268 271 266 261 258 251 244 248 252 253 251 254 256 262 266 270 272 273 277 280 277 276 275 277 276 273 276 282 286 285 284 284 290 294 293 292 288 288 288
241 238 240 247 254 264 268 263 261 262 264 269 267 247 245 245 249 252 255 258 263 268 270 270 269 273 275 276 274 277 277 274 270 276 281 284 284 282 280 281 283 285 287 287
242 233 229 237 244 247 250 255 255 259 261 264 267 259 257 263 258 261 266 267 266 268 265 263 265 262 266 269 278 275 274 271 273 278 281 282 283 284 286 286 286 287 286 287
240 237 227 230 238 245 247 251 257 259 260 257 259 263 262 263 265 266 267 266 270 275 277 277 270 263 269 280 280 281 281 279 286 293 285 284 281 284 286 286 287 287 287 287
232 237 236 232 235 243 246 250 254 254 256 255 258 262 269 266 261 268 273 278 281 283 283 282 280 281 280 282 280 279 280 284 286 289 287 286 287 286 286 285 286 286 287 288
236 240 238 238 240 240 248 255 258 259 261 263 267 271 270 270 272 274 276 277 276 274 276 276 269 271 281 283 286 283 282 284 286 286 287 287 285 284 284 284 285 286 288 289
242 242 240 242 246 255 256 254 257 263 271 276 278 278 277 274 272 271 271 272 273 275 273 271 274 277 279 282 283 285 284 283 284 284 284 284 285 285 286 286 288 289 290 291
244 251 253 254 258 260 260 263 267 271 273 276 276 276 274 273 273 272 272 271 272 273 274 274 275 277 279 280 281 283 283 284 284 284 285 285 285 286 287 288 289 291 292 294
253 262 263 266 265 266 268 270 271 273 270 268 267 266 266 265 266 267 268 269 271 272 274 276 278 279 280 280 281 282 283 283 284 285 286 286 287 288 290 292 293 295 296 296
257 265 279 279 266 260 260 263 265 264 264 266 267 268 269 271 272 272 274 275 276 277 277 278 279 280 281 282 283 284 285 286 287 288 289 291 292 293 294 295 296 297 297 297
264 256 251 255 261 266 269 269 272 274 275 274 273 273 273 273 274 275 275 277 278 279 280 281 282 283 283 284 285 286 288 289 291 292 292 293 294 295 295 296 296 296 296 296
263 271 279 283 284 285 284 283 282 281 281 281 280 280 281 282 282 283 284 284 284 284 284 285 286 286 288 289 289 290 291 291 292 294 294 295 295 295 296 296 297 298 299 299
292 293 291 290 290 290 289 288 286 287 288 289 289 290 289 288 287 287 286 286 285 286 286 287 287 288 288 289 290 291 292 293 293 293 294 295 297 298 299 300 301 301 302 301
293 293 294 295 295 294 293 292 290 289 289 289 289 289 289 288 287 286 286 286 287 287 288 288 289 290 291 291 292 292 293 294 295 297 298 299 300 301 302 302 303 304 304 304